Find Local Weather

World > North America > United States > California

South Lake Tahoe, California Regional Weather

Lat: 38.94N, Lon: 119.98W
Wx Zone: CAZ072
Feedback
Expires:201812182000;;990962
ASUS45 KREV 181910
RWRNV 
NEVADA REGIONAL WEATHER ROUNDUP
NATIONAL WEATHER SERVICE RENO NV
1100 AM PST TUE DEC 18 2018

NOTE: "FAIR" INDICATES FEW OR NO CLOUDS BELOW 12,000 FEET WITH NO
SIGNIFICANT WEATHER AND/OR OBSTRUCTIONS TO VISIBILITY.


NVZ002-CAZ072-073-182000-
NORTHERN AND CENTRAL SIERRA
  
CITY           SKY/WX    TMP DP  RH WIND       PRES   REMARKS
S. LAKE TAHOE  SUNNY     44  17  33 S10       30.29S                  
TRUCKEE        PTSUNNY   41  19  42 CALM      30.27                   
SQUAW VLY 8000   N/A     32  16  51 SW20        N/A                   
BLUE CANYON    MOSUNNY   41  30  65 S8        30.34F                  
MAMMOTH LAKES  FAIR      32  24  71 CALM      30.31F                  
$$


SKY/WX - Weather  TMP - Temperature  DP - Dew Point  RH - Relative Humidity
WIND - Wind Direction/Speed PRES - Barometric Pressure